| time (UTC) | temp C | wind direction | speed KPH | gust KPH | rain 1hr cm | rain 24hr cm | rain mn cm | humidity % | barometer mb |
| 20260506161523 | 20 | 127 | 0.0 | 4.8 | 0.00 | 0.00 | 0.00 | 63 | 1008.4 |
| 20260506160021 | 21 | 119 | 0.0 | 4.8 | 0.00 | 0.00 | 0.00 | 67 | 1008.4 |
| 20260506154520 | 21 | 140 | 0.0 | 8.0 | 0.00 | 0.00 | 0.00 | 66 | 1008.5 |
| 20260506153025 | 21 | 232 | 0.0 | 3.2 | 0.00 | 0.00 | 0.00 | 65 | 1008.3 |
| 20260506151518 | 21 | 113 | 0.0 | 1.6 | 0.00 | 0.00 | 0.00 | 65 | 1008.5 |
| 20260506150017 | 21 | 92 | 0.0 | 4.8 | 0.00 | 0.00 | 0.00 | 63 | 1008.6 |
| 20260506144534 | 21 | 171 | 0.0 | 4.8 | 0.00 | 0.00 | 0.00 | 60 | 1008.6 |
| 20260506143013 | 21 | 169 | 0.0 | 4.8 | 0.00 | 0.00 | 0.00 | 58 | 1008.5 |
| 20260506141510 | 20 | 154 | 0.0 | 8.0 | 0.00 | 0.00 | 0.00 | 57 | 1008.5 |
| 20260506140009 | 20 | 111 | 0.0 | 6.4 | 0.00 | 0.00 | 0.00 | 54 | 1008.5 |
| 20260506134509 | 20 | 171 | 0.0 | 3.2 | 0.00 | 0.00 | 0.00 | 50 | 1008.5 |
| 20260506133007 | 19 | 163 | 0.0 | 1.6 | 0.00 | 0.00 | 0.00 | 47 | 1008.6 |
| 20260506131506 | 18 | 186 | 0.0 | 1.6 | 0.00 | 0.00 | 0.00 | 46 | 1008.8 |
| 20260506130006 | 18 | 125 | 0.0 | 0.0 | 0.00 | 0.00 | 0.00 | 46 | 1008.8 |
| 20260506124504 | 17 | 347 | 0.0 | 1.6 | 0.00 | 0.00 | 0.00 | 46 | 1008.8 |
| 20260506123003 | 17 | 146 | 0.0 | 3.2 | 0.00 | 0.00 | 0.00 | 46 | 1008.8 |
| 20260506121501 | 17 | 144 | 0.0 | 1.6 | 0.00 | 0.00 | 0.00 | 46 | 1008.8 |
| 20260506120001 | 17 | 153 | 0.0 | 4.8 | 0.00 | 0.00 | 0.00 | 46 | 1009.0 |
| 20260506114501 | 18 | 256 | 0.0 | 4.8 | 0.00 | 0.00 | 0.00 | 46 | 1008.9 |
| 20260506113100 | 18 | 240 | 0.0 | 0.0 | 0.00 | 0.00 | 0.00 | 46 | 1009.1 |
| 20260506111556 | 19 | 240 | 0.0 | 8.0 | 0.00 | 0.00 | 0.00 | 46 | 1009.1 |
| 20260506110055 | 20 | 264 | 0.0 | 1.6 | 0.00 | 0.00 | 0.00 | 46 | 1009.0 |
| 20260506104600 | 20 | 265 | 0.0 | 3.2 | 0.00 | 0.00 | 0.00 | 46 | 1008.9 |
| 20260506103054 | 21 | 262 | 0.0 | 3.2 | 0.00 | 0.00 | 0.00 | 46 | 1009.0 |
| 20260506101548 | 20 | 262 | 0.0 | 3.2 | 0.00 | 0.00 | 0.00 | 46 | 1008.8 |
| 20260506094545 | 20 | 271 | 0.0 | 8.0 | 0.00 | 0.00 | 0.00 | 46 | 1008.7 |
| 20260506093045 | 20 | 277 | 0.0 | 3.2 | 0.00 | 0.00 | 0.00 | 46 | 1008.7 |
| 20260506091541 | 20 | 279 | 0.0 | 3.2 | 0.00 | 0.00 | 0.00 | 46 | 1008.8 |
| 20260506090042 | 19 | 355 | 0.0 | 1.6 | 0.00 | 0.00 | 0.00 | 46 | 1008.8 |
| 20260506084540 | 19 | 202 | 0.0 | 1.6 | 0.00 | 0.00 | 0.00 | 46 | 1008.9 |
| 20260506083037 | 18 | 221 | 0.0 | 1.6 | 0.00 | 0.00 | 0.00 | 46 | 1008.9 |
| 20260506081533 | 18 | 267 | 0.0 | 8.0 | 0.00 | 0.00 | 0.00 | 46 | 1009.1 |
| 20260506073030 | 17 | 266 | 0.0 | 4.8 | 0.00 | 0.00 | 0.00 | 46 | 1009.1 |
| 20260506071528 | 17 | 260 | 0.0 | 4.8 | 0.00 | 0.00 | 0.00 | 46 | 1009.2 |
| 20260506061523 | 17 | 184 | 0.0 | 0.0 | 0.00 | 0.00 | 0.00 | 54 | 1009.2 |
| 20260506044512 | 17 | 173 | 0.0 | 6.4 | 0.00 | 0.00 | 0.00 | 75 | 1009.6 |
| 20260506043009 | 17 | 180 | 0.0 | 6.4 | 0.00 | 0.00 | 0.00 | 78 | 1009.6 |
| 20260506041506 | 18 | 273 | 0.0 | 3.2 | 0.00 | 0.00 | 0.00 | 82 | 1009.6 |
| 20260506040004 | 18 | 267 | 0.0 | 3.2 | 0.00 | 0.00 | 0.00 | 85 | 1009.6 |
| 20260506034505 | 18 | 110 | 0.0 | 8.0 | 0.00 | 0.00 | 0.00 | 87 | 1009.6 |
| 20260506033004 | 18 | 277 | 0.0 | 8.0 | 0.00 | 0.00 | 0.00 | 89 | 1009.5 |
| 20260506031503 | 19 | 18 | 0.0 | 1.6 | 0.00 | 0.00 | 0.00 | 90 | 1009.5 |
| 20260506030004 | 19 | 276 | 0.0 | 4.8 | 0.00 | 0.00 | 0.00 | 91 | 1009.5 |
| 20260506024503 | 19 | 206 | 0.0 | 4.8 | 0.00 | 0.00 | 0.00 | 91 | 1009.5 |
| 20260506023001 | 19 | 264 | 0.0 | 3.2 | 0.00 | 0.00 | 0.00 | 92 | 1009.5 |
| 20260506021604 | 20 | 250 | 0.0 | 1.6 | 0.00 | 0.00 | 0.00 | 92 | 1009.5 |
| 20260506020100 | 20 | 153 | 0.0 | 4.8 | 0.00 | 0.00 | 0.00 | 93 | 1009.3 |
| 20260506014600 | 20 | 263 | 0.0 | 1.6 | 0.00 | 0.00 | 0.00 | 94 | 1009.4 |
| 20260506013110 | 20 | 267 | 0.0 | 8.0 | 0.00 | 0.00 | 0.00 | 94 | 1009.2 |
| 20260506011601 | 21 | 269 | 0.0 | 8.0 | 0.00 | 0.00 | 0.00 | 95 | 1009.1 |
| 20260506010119 | 21 | 258 | 0.0 | 4.8 | 0.00 | 0.00 | 0.00 | 95 | 1009.0 |
| 20260506004557 | 22 | 253 | 0.0 | 6.4 | 0.00 | 0.00 | 0.00 | 95 | 1008.8 |
| 20260506003112 | 23 | 263 | 0.0 | 8.0 | 0.00 | 0.00 | 0.00 | 92 | 1008.5 |
| 20260506001602 | 23 | 243 | 0.0 | 1.6 | 0.00 | 0.00 | 0.00 | 87 | 1008.3 |
| 20260506000055 | 24 | 167 | 0.0 | 3.2 | 0.00 | 0.00 | 0.00 | 86 | 1008.2 |
| 20260505234554 | 25 | 231 | 0.0 | 1.6 | 0.00 | 0.00 | 0.00 | 85 | 1008.1 |
| 20260505233105 | 25 | 213 | 0.0 | 8.0 | 0.00 | 0.00 | 0.00 | 83 | 1007.9 |
| 20260505231553 | 25 | 182 | 0.0 | 1.6 | 0.00 | 0.00 | 0.00 | 81 | 1007.5 |
| 20260505230056 | 26 | 191 | 0.0 | 6.4 | 0.00 | 0.00 | 0.00 | 80 | 1007.5 |
| 20260505224552 | 26 | 194 | 0.0 | 1.6 | 0.00 | 0.00 | 0.00 | 78 | 1007.2 |
| 20260505223052 | 27 | 196 | 0.0 | 1.6 | 0.00 | 0.00 | 0.00 | 76 | 1007.2 |
| 20260505221551 | 27 | 155 | 0.0 | 4.8 | 0.00 | 0.00 | 0.00 | 75 | 1007.0 |
| 20260505220050 | 27 | 259 | 0.0 | 4.8 | 0.00 | 0.00 | 0.00 | 77 | 1006.8 |
| 20260505214604 | 27 | 125 | 0.0 | 8.0 | 0.00 | 0.00 | 0.00 | 77 | 1006.8 |
| 20260505213050 | 27 | 116 | 0.0 | 12.9 | 0.00 | 0.00 | 0.00 | 78 | 1006.7 |
| 20260505211549 | 28 | 267 | 0.0 | 12.9 | 0.00 | 0.00 | 0.00 | 77 | 1006.6 |
| 20260505210048 | 28 | 140 | 0.0 | 6.4 | 0.00 | 0.00 | 0.00 | 77 | 1006.6 |
| 20260505204548 | 28 | 275 | 0.0 | 8.0 | 0.00 | 0.00 | 0.00 | 76 | 1006.5 |
| 20260505203047 | 28 | 149 | 0.0 | 8.0 | 0.00 | 0.00 | 0.00 | 75 | 1006.8 |
| 20260505201551 | 28 | 130 | 0.0 | 3.2 | 0.00 | 0.00 | 0.00 | 75 | 1006.7 |
| 20260505200044 | 28 | 140 | 0.0 | 6.4 | 0.00 | 0.00 | 0.00 | 75 | 1006.8 |
| 20260505194543 | 28 | 237 | 0.0 | 4.8 | 0.00 | 0.00 | 0.00 | 74 | 1006.9 |
| 20260505193042 | 28 | 121 | 0.0 | 6.4 | 0.00 | 0.00 | 0.00 | 75 | 1007.2 |
| 20260505191541 | 28 | 71 | 0.0 | 6.4 | 0.00 | 0.00 | 0.00 | 76 | 1007.4 |
| 20260505190039 | 28 | 269 | 0.0 | 9.7 | 0.00 | 0.00 | 0.00 | 77 | 1007.7 |
| 20260505184535 | 28 | 207 | 0.0 | 6.4 | 0.00 | 0.00 | 0.00 | 77 | 1007.9 |
| 20260505183049 | 29 | 233 | 0.0 | 1.6 | 0.00 | 0.00 | 0.00 | 80 | 1008.1 |
| 20260505181534 | 29 | 239 | 0.0 | 6.4 | 0.00 | 0.00 | 0.00 | 77 | 1008.2 |
| 20260505180030 | 30 | 178 | 0.0 | 3.2 | 0.00 | 0.00 | 0.00 | 77 | 1008.4 |
| 20260505174529 | 30 | 276 | 0.0 | 4.8 | 0.00 | 0.00 | 0.00 | 78 | 1008.5 |
| 20260505173037 | 30 | 245 | 0.0 | 3.2 | 0.00 | 0.00 | 0.00 | 77 | 1008.7 |
| 20260505171540 | 30 | 239 | 0.0 | 3.2 | 0.00 | 0.00 | 0.00 | 78 | 1008.9 |
| 20260505170024 | 30 | 267 | 0.0 | 3.2 | 0.00 | 0.00 | 0.00 | 79 | 1008.9 |
| 20260505164522 | 30 | 254 | 0.0 | 4.8 | 0.00 | 0.00 | 0.00 | 79 | 1009.2 |
| 20260505163020 | 30 | 272 | 0.0 | 1.6 | 0.00 | 0.00 | 0.00 | 78 | 1009.2 |